Year,Month,Day,Hour,Minute,Value (Times are PST for insolation in W/m^2)
2016,01,29,00,00,0.00
2016,01,29,00,01,0.00
2016,01,29,00,02,0.00
2016,01,29,00,03,0.00
2016,01,29,00,04,0.00
2016,01,29,00,05,0.00
2016,01,29,00,06,0.00
2016,01,29,00,07,0.00
2016,01,29,00,08,0.00
2016,01,29,00,09,0.00
2016,01,29,00,10,0.00
2016,01,29,00,11,0.00
2016,01,29,00,12,0.00
2016,01,29,00,13,0.00
2016,01,29,00,14,0.00
2016,01,29,00,15,0.00
2016,01,29,00,16,0.00
2016,01,29,00,17,0.00
2016,01,29,00,18,0.00
2016,01,29,00,19,0.00
2016,01,29,00,20,0.00
2016,01,29,00,21,0.00
2016,01,29,00,22,0.00
2016,01,29,00,23,0.00
2016,01,29,00,24,0.00
2016,01,29,00,25,0.00
2016,01,29,00,26,0.00
2016,01,29,00,27,0.00
2016,01,29,00,28,0.00
2016,01,29,00,29,0.00
2016,01,29,00,30,0.00
2016,01,29,00,31,0.00
2016,01,29,00,32,0.00
2016,01,29,00,33,0.00
2016,01,29,00,34,0.00
2016,01,29,00,35,0.00
2016,01,29,00,36,0.00
2016,01,29,00,37,0.00
2016,01,29,00,38,0.00
2016,01,29,00,39,0.00
2016,01,29,00,40,0.00
2016,01,29,00,41,0.00
2016,01,29,00,42,0.00
2016,01,29,00,43,0.00
2016,01,29,00,44,0.00
2016,01,29,00,45,0.00
2016,01,29,00,46,0.00
2016,01,29,00,47,0.00
2016,01,29,00,48,0.00
2016,01,29,00,49,0.00
2016,01,29,00,50,0.00
2016,01,29,00,51,0.00
2016,01,29,00,52,0.00
2016,01,29,00,53,0.00
2016,01,29,00,54,0.00
2016,01,29,00,55,0.00
2016,01,29,00,56,0.00
2016,01,29,00,57,0.00
2016,01,29,00,58,0.00
2016,01,29,00,59,0.00
2016,01,29,01,00,0.00
2016,01,29,01,01,0.00
2016,01,29,01,02,0.00
2016,01,29,01,03,0.00
2016,01,29,01,04,0.00
2016,01,29,01,05,0.00
2016,01,29,01,06,0.00
2016,01,29,01,07,0.00
2016,01,29,01,08,0.00
2016,01,29,01,09,0.00
2016,01,29,01,10,0.00
2016,01,29,01,11,0.00
2016,01,29,01,12,0.00
2016,01,29,01,13,0.00
2016,01,29,01,14,0.00
2016,01,29,01,15,0.00
2016,01,29,01,16,0.00
2016,01,29,01,17,0.00
2016,01,29,01,18,0.00
2016,01,29,01,19,0.00
2016,01,29,01,20,0.00
2016,01,29,01,21,0.00
2016,01,29,01,22,0.00
2016,01,29,01,23,0.00
2016,01,29,01,24,0.00
2016,01,29,01,25,0.00
2016,01,29,01,26,0.00
2016,01,29,01,27,0.00
2016,01,29,01,28,0.00
2016,01,29,01,29,0.00
2016,01,29,01,30,0.00
2016,01,29,01,31,0.00
2016,01,29,01,32,0.00
2016,01,29,01,33,0.00
2016,01,29,01,34,0.00
2016,01,29,01,35,0.00
2016,01,29,01,36,0.00
2016,01,29,01,37,0.00
2016,01,29,01,38,0.00
2016,01,29,01,39,0.00
2016,01,29,01,40,0.00
2016,01,29,01,41,0.00
2016,01,29,01,42,0.00
2016,01,29,01,43,0.00
2016,01,29,01,44,0.00
2016,01,29,01,45,0.00
2016,01,29,01,46,0.00
2016,01,29,01,47,0.00
2016,01,29,01,48,0.00
2016,01,29,01,49,0.00
2016,01,29,01,50,0.00
2016,01,29,01,51,0.00
2016,01,29,01,52,0.00
2016,01,29,01,53,0.00
2016,01,29,01,54,0.00
2016,01,29,01,55,0.00
2016,01,29,01,56,0.00
2016,01,29,01,57,0.00
2016,01,29,01,58,0.00
2016,01,29,01,59,0.00
2016,01,29,02,00,0.00
2016,01,29,02,01,0.00
2016,01,29,02,02,0.00
2016,01,29,02,03,0.00
2016,01,29,02,04,0.00
2016,01,29,02,05,0.00
2016,01,29,02,06,0.00
2016,01,29,02,07,0.00
2016,01,29,02,08,0.00
2016,01,29,02,09,0.00
2016,01,29,02,10,0.00
2016,01,29,02,11,0.00
2016,01,29,02,12,0.00
2016,01,29,02,13,0.00
2016,01,29,02,14,0.00
2016,01,29,02,15,0.00
2016,01,29,02,16,0.00
2016,01,29,02,17,0.00
2016,01,29,02,18,0.00
2016,01,29,02,19,0.00
2016,01,29,02,20,0.00
2016,01,29,02,21,0.00
2016,01,29,02,22,0.00
2016,01,29,02,23,0.00
2016,01,29,02,24,0.00
2016,01,29,02,25,0.00
2016,01,29,02,26,0.00
2016,01,29,02,27,0.00
2016,01,29,02,28,0.00
2016,01,29,02,29,0.00
2016,01,29,02,30,0.00
2016,01,29,02,31,0.00
2016,01,29,02,32,0.00
2016,01,29,02,33,0.00
2016,01,29,02,34,0.00
2016,01,29,02,35,0.00
2016,01,29,02,36,0.00
2016,01,29,02,37,0.00
2016,01,29,02,38,0.00
2016,01,29,02,39,0.00
2016,01,29,02,40,0.00
2016,01,29,02,41,0.00
2016,01,29,02,42,0.00
2016,01,29,02,43,0.00
2016,01,29,02,44,0.00
2016,01,29,02,45,0.00
2016,01,29,02,46,0.00
2016,01,29,02,47,0.00
2016,01,29,02,48,0.00
2016,01,29,02,49,0.00
2016,01,29,02,50,0.00
2016,01,29,02,51,0.00
2016,01,29,02,52,0.00
2016,01,29,02,53,0.00
2016,01,29,02,54,0.00
2016,01,29,02,55,0.00
2016,01,29,02,56,0.00
2016,01,29,02,57,0.00
2016,01,29,02,58,0.00
2016,01,29,02,59,0.00
2016,01,29,03,00,0.00
2016,01,29,03,01,0.00
2016,01,29,03,02,0.00
2016,01,29,03,03,0.00
2016,01,29,03,04,0.00
2016,01,29,03,05,0.00
2016,01,29,03,06,0.00
2016,01,29,03,07,0.00
2016,01,29,03,08,0.00
2016,01,29,03,09,0.00
2016,01,29,03,10,0.00
2016,01,29,03,11,0.00
2016,01,29,03,12,0.00
2016,01,29,03,13,0.00
2016,01,29,03,14,0.00
2016,01,29,03,15,0.00
2016,01,29,03,16,0.00
2016,01,29,03,17,0.00
2016,01,29,03,18,0.00
2016,01,29,03,19,0.00
2016,01,29,03,20,0.00
2016,01,29,03,21,0.00
2016,01,29,03,22,0.00
2016,01,29,03,23,0.00
2016,01,29,03,24,0.00
2016,01,29,03,25,0.00
2016,01,29,03,26,0.00
2016,01,29,03,27,0.00
2016,01,29,03,28,0.00
2016,01,29,03,29,0.00
2016,01,29,03,30,0.00
2016,01,29,03,31,0.00
2016,01,29,03,32,0.00
2016,01,29,03,33,0.00
2016,01,29,03,34,0.00
2016,01,29,03,35,0.00
2016,01,29,03,36,0.00
2016,01,29,03,37,0.00
2016,01,29,03,38,0.00
2016,01,29,03,39,0.00
2016,01,29,03,40,0.00
2016,01,29,03,41,0.00
2016,01,29,03,42,0.00
2016,01,29,03,43,0.00
2016,01,29,03,44,0.00
2016,01,29,03,45,0.00
2016,01,29,03,46,0.00
2016,01,29,03,47,0.00
2016,01,29,03,48,0.00
2016,01,29,03,49,0.00
2016,01,29,03,50,0.00
2016,01,29,03,51,0.00
2016,01,29,03,52,0.00
2016,01,29,03,53,0.00
2016,01,29,03,54,0.00
2016,01,29,03,55,0.00
2016,01,29,03,56,0.00
2016,01,29,03,57,0.00
2016,01,29,03,58,0.00
2016,01,29,03,59,0.00
2016,01,29,04,00,0.00
2016,01,29,04,01,0.00
2016,01,29,04,02,0.00
2016,01,29,04,03,0.00
2016,01,29,04,04,0.00
2016,01,29,04,05,0.00
2016,01,29,04,06,0.00
2016,01,29,04,07,0.00
2016,01,29,04,08,0.00
2016,01,29,04,09,0.00
2016,01,29,04,10,0.00
2016,01,29,04,11,0.00
2016,01,29,04,12,0.00
2016,01,29,04,13,0.00
2016,01,29,04,14,0.00
2016,01,29,04,15,0.00
2016,01,29,04,16,0.00
2016,01,29,04,17,0.00
2016,01,29,04,18,0.00
2016,01,29,04,19,0.00
2016,01,29,04,20,0.00
2016,01,29,04,21,0.00
2016,01,29,04,22,0.00
2016,01,29,04,23,0.00
2016,01,29,04,24,0.00
2016,01,29,04,25,0.00
2016,01,29,04,26,0.00
2016,01,29,04,27,0.00
2016,01,29,04,28,0.00
2016,01,29,04,29,0.00
2016,01,29,04,30,0.00
2016,01,29,04,31,0.00
2016,01,29,04,32,0.00
2016,01,29,04,33,0.00
2016,01,29,04,34,0.00
2016,01,29,04,35,0.00
2016,01,29,04,36,0.00
2016,01,29,04,37,0.00
2016,01,29,04,38,0.00
2016,01,29,04,39,0.00
2016,01,29,04,40,0.00
2016,01,29,04,41,0.00
2016,01,29,04,42,0.00
2016,01,29,04,43,0.00
2016,01,29,04,44,0.00
2016,01,29,04,45,0.00
2016,01,29,04,46,0.00
2016,01,29,04,47,0.00
2016,01,29,04,48,0.00
2016,01,29,04,49,0.00
2016,01,29,04,50,0.00
2016,01,29,04,51,0.00
2016,01,29,04,52,0.00
2016,01,29,04,53,0.00
2016,01,29,04,54,0.00
2016,01,29,04,55,0.00
2016,01,29,04,56,0.00
2016,01,29,04,57,0.00
2016,01,29,04,58,0.00
2016,01,29,04,59,0.00
2016,01,29,05,00,0.00
2016,01,29,05,01,0.00
2016,01,29,05,02,0.00
2016,01,29,05,03,0.00
2016,01,29,05,04,0.00
2016,01,29,05,05,0.00
2016,01,29,05,06,0.00
2016,01,29,05,07,0.00
2016,01,29,05,08,0.00
2016,01,29,05,09,0.00
2016,01,29,05,10,0.00
2016,01,29,05,11,0.00
2016,01,29,05,12,0.00
2016,01,29,05,13,0.00
2016,01,29,05,14,0.00
2016,01,29,05,15,0.00
2016,01,29,05,16,0.00
2016,01,29,05,17,0.00
2016,01,29,05,18,0.00
2016,01,29,05,19,0.00
2016,01,29,05,20,0.00
2016,01,29,05,21,0.00
2016,01,29,05,22,0.00
2016,01,29,05,23,0.00
2016,01,29,05,24,0.00
2016,01,29,05,25,0.00
2016,01,29,05,26,0.00
2016,01,29,05,27,0.00
2016,01,29,05,28,0.00
2016,01,29,05,29,0.00
2016,01,29,05,30,0.00
2016,01,29,05,31,0.00
2016,01,29,05,32,0.00
2016,01,29,05,33,0.00
2016,01,29,05,34,0.00
2016,01,29,05,35,0.00
2016,01,29,05,36,0.00
2016,01,29,05,37,0.00
2016,01,29,05,38,0.00
2016,01,29,05,39,0.00
2016,01,29,05,40,0.00
2016,01,29,05,41,0.00
2016,01,29,05,42,0.00
2016,01,29,05,43,0.00
2016,01,29,05,44,0.00
2016,01,29,05,45,0.00
2016,01,29,05,46,0.00
2016,01,29,05,47,0.00
2016,01,29,05,48,0.00
2016,01,29,05,49,0.00
2016,01,29,05,50,0.00
2016,01,29,05,51,0.00
2016,01,29,05,52,0.00
2016,01,29,05,53,0.00
2016,01,29,05,54,0.00
2016,01,29,05,55,0.00
2016,01,29,05,56,0.00
2016,01,29,05,57,0.00
2016,01,29,05,58,0.00
2016,01,29,05,59,0.00
2016,01,29,06,00,0.00
2016,01,29,06,01,0.00
2016,01,29,06,02,0.00
2016,01,29,06,03,0.00
2016,01,29,06,04,0.00
2016,01,29,06,05,0.00
2016,01,29,06,06,0.00
2016,01,29,06,07,0.00
2016,01,29,06,08,0.00
2016,01,29,06,09,0.00
2016,01,29,06,10,0.00
2016,01,29,06,11,0.00
2016,01,29,06,12,0.00
2016,01,29,06,13,0.00
2016,01,29,06,14,0.00
2016,01,29,06,15,0.00
2016,01,29,06,16,0.00
2016,01,29,06,17,0.00
2016,01,29,06,18,0.00
2016,01,29,06,19,0.00
2016,01,29,06,20,0.00
2016,01,29,06,21,0.00
2016,01,29,06,22,0.00
2016,01,29,06,23,0.00
2016,01,29,06,24,0.00
2016,01,29,06,25,0.00
2016,01,29,06,26,0.00
2016,01,29,06,27,0.00
2016,01,29,06,28,0.00
2016,01,29,06,29,0.00
2016,01,29,06,30,0.00
2016,01,29,06,31,0.00
2016,01,29,06,32,0.00
2016,01,29,06,33,0.00
2016,01,29,06,34,0.00
2016,01,29,06,35,0.00
2016,01,29,06,36,0.00
2016,01,29,06,37,0.00
2016,01,29,06,38,0.00
2016,01,29,06,39,0.00
2016,01,29,06,40,0.00
2016,01,29,06,41,0.00
2016,01,29,06,42,0.00
2016,01,29,06,43,0.00
2016,01,29,06,44,0.00
2016,01,29,06,45,0.00
2016,01,29,06,46,0.00
2016,01,29,06,47,0.00
2016,01,29,06,48,0.00
2016,01,29,06,49,0.00
2016,01,29,06,50,0.00
2016,01,29,06,51,0.00
2016,01,29,06,52,0.00
2016,01,29,06,53,0.00
2016,01,29,06,54,0.00
2016,01,29,06,55,0.00
2016,01,29,06,56,0.00
2016,01,29,06,57,0.00
2016,01,29,06,58,0.00
2016,01,29,06,59,0.00
2016,01,29,07,00,0.00
2016,01,29,07,01,0.00
2016,01,29,07,02,0.00
2016,01,29,07,03,0.00
2016,01,29,07,04,0.00
2016,01,29,07,05,0.00
2016,01,29,07,06,0.00
2016,01,29,07,07,0.00
2016,01,29,07,08,0.00
2016,01,29,07,09,0.00
2016,01,29,07,10,0.00
2016,01,29,07,11,0.00
2016,01,29,07,12,0.00
2016,01,29,07,13,0.00
2016,01,29,07,14,0.00
2016,01,29,07,15,0.00
2016,01,29,07,16,0.00
2016,01,29,07,17,0.00
2016,01,29,07,18,0.00
2016,01,29,07,19,0.00
2016,01,29,07,20,0.00
2016,01,29,07,21,0.00
2016,01,29,07,22,0.00
2016,01,29,07,23,0.00
2016,01,29,07,24,0.00
2016,01,29,07,25,0.00
2016,01,29,07,26,0.00
2016,01,29,07,27,0.00
2016,01,29,07,28,0.00
2016,01,29,07,29,0.00
2016,01,29,07,30,0.00
2016,01,29,07,31,0.00
2016,01,29,07,32,0.00
2016,01,29,07,33,0.00
2016,01,29,07,34,0.00
2016,01,29,07,35,0.00
2016,01,29,07,36,0.00
2016,01,29,07,37,0.00
2016,01,29,07,38,0.00
2016,01,29,07,39,0.00
2016,01,29,07,40,0.00
2016,01,29,07,41,0.00
2016,01,29,07,42,0.00
2016,01,29,07,43,0.00
2016,01,29,07,44,0.00
2016,01,29,07,45,0.00
2016,01,29,07,46,0.00
2016,01,29,07,47,0.00
2016,01,29,07,48,0.00
2016,01,29,07,49,0.00
2016,01,29,07,50,0.00
2016,01,29,07,51,0.00
2016,01,29,07,52,0.00
2016,01,29,07,53,0.00
2016,01,29,07,54,0.00
2016,01,29,07,55,0.00
2016,01,29,07,56,0.00
2016,01,29,07,57,0.00
2016,01,29,07,58,0.00
2016,01,29,07,59,0.00
2016,01,29,08,00,0.00
2016,01,29,08,01,0.00
2016,01,29,08,02,0.00
2016,01,29,08,03,0.00
2016,01,29,08,04,0.00
2016,01,29,08,05,0.00
2016,01,29,08,06,0.00
2016,01,29,08,07,0.00
2016,01,29,08,08,0.00
2016,01,29,08,09,0.00
2016,01,29,08,10,0.00
2016,01,29,08,11,0.00
2016,01,29,08,12,0.00
2016,01,29,08,13,0.00
2016,01,29,08,14,0.00
2016,01,29,08,15,0.00
2016,01,29,08,16,0.00
2016,01,29,08,17,0.00
2016,01,29,08,18,0.00
2016,01,29,08,19,0.00
2016,01,29,08,20,0.00
2016,01,29,08,21,0.00
2016,01,29,08,22,0.00
2016,01,29,08,23,0.00
2016,01,29,08,24,0.00
2016,01,29,08,25,0.00
2016,01,29,08,26,0.00
2016,01,29,08,27,0.00
2016,01,29,08,28,0.00
2016,01,29,08,29,0.00
2016,01,29,08,30,0.00
2016,01,29,08,31,0.00
2016,01,29,08,32,0.00
2016,01,29,08,33,0.00
2016,01,29,08,34,0.00
2016,01,29,08,35,0.00
2016,01,29,08,36,0.00
2016,01,29,08,37,0.00
2016,01,29,08,38,0.00
2016,01,29,08,39,0.00
2016,01,29,08,40,0.00
2016,01,29,08,41,5.20
2016,01,29,08,42,7.00
2016,01,29,08,43,7.00
2016,01,29,08,44,7.00
2016,01,29,08,45,7.00
2016,01,29,08,46,5.50
2016,01,29,08,47,5.00
2016,01,29,08,48,6.90
2016,01,29,08,49,7.00
2016,01,29,08,50,7.70
2016,01,29,08,51,9.00
2016,01,29,08,52,9.00
2016,01,29,08,53,9.00
2016,01,29,08,54,10.70
2016,01,29,08,55,11.00
2016,01,29,08,56,11.00
2016,01,29,08,57,11.00
2016,01,29,08,58,11.00
2016,01,29,08,59,11.00
2016,01,29,09,00,11.70
2016,01,29,09,01,12.00
2016,01,29,09,02,14.00
2016,01,29,09,03,14.00
2016,01,29,09,04,14.00
2016,01,29,09,05,14.00
2016,01,29,09,06,12.80
2016,01,29,09,07,12.00
2016,01,29,09,08,11.10
2016,01,29,09,09,11.00
2016,01,29,09,10,11.00
2016,01,29,09,11,10.30
2016,01,29,09,12,9.00
2016,01,29,09,13,10.20
2016,01,29,09,14,11.70
2016,01,29,09,15,12.00
2016,01,29,09,16,12.00
2016,01,29,09,17,12.00
2016,01,29,09,18,12.00
2016,01,29,09,19,13.90
2016,01,29,09,20,16.00
2016,01,29,09,21,16.00
2016,01,29,09,22,14.30
2016,01,29,09,23,16.10
2016,01,29,09,24,19.90
2016,01,29,09,25,22.30
2016,01,29,09,26,22.00
2016,01,29,09,27,20.50
2016,01,29,09,28,19.00
2016,01,29,09,29,18.10
2016,01,29,09,30,19.20
2016,01,29,09,31,21.40
2016,01,29,09,32,24.10
2016,01,29,09,33,25.50
2016,01,29,09,34,23.70
2016,01,29,09,35,24.50
2016,01,29,09,36,25.00
2016,01,29,09,37,26.20
2016,01,29,09,38,28.90
2016,01,29,09,39,33.10
2016,01,29,09,40,35.90
2016,01,29,09,41,37.00
2016,01,29,09,42,37.00
2016,01,29,09,43,37.00
2016,01,29,09,44,39.60
2016,01,29,09,45,43.50
2016,01,29,09,46,41.30
2016,01,29,09,47,40.00
2016,01,29,09,48,39.40
2016,01,29,09,49,41.20
2016,01,29,09,50,45.40
2016,01,29,09,51,42.00
2016,01,29,09,52,40.20
2016,01,29,09,53,34.30
2016,01,29,09,54,33.00
2016,01,29,09,55,33.00
2016,01,29,09,56,32.30
2016,01,29,09,57,30.30
2016,01,29,09,58,32.30
2016,01,29,09,59,35.40
2016,01,29,10,00,34.40
2016,01,29,10,01,28.00
2016,01,29,10,02,26.00
2016,01,29,10,03,27.50
2016,01,29,10,04,29.70
2016,01,29,10,05,33.00
2016,01,29,10,06,33.40
2016,01,29,10,07,35.00
2016,01,29,10,08,33.60
2016,01,29,10,09,32.60
2016,01,29,10,10,33.00
2016,01,29,10,11,36.40
2016,01,29,10,12,35.00
2016,01,29,10,13,35.00
2016,01,29,10,14,36.90
2016,01,29,10,15,38.50
2016,01,29,10,16,35.80
2016,01,29,10,17,36.50
2016,01,29,10,18,37.00
2016,01,29,10,19,39.10
2016,01,29,10,20,40.00
2016,01,29,10,21,38.10
2016,01,29,10,22,33.60
2016,01,29,10,23,32.00
2016,01,29,10,24,32.00
2016,01,29,10,25,34.70
2016,01,29,10,26,37.30
2016,01,29,10,27,40.90
2016,01,29,10,28,44.00
2016,01,29,10,29,42.10
2016,01,29,10,30,35.90
2016,01,29,10,31,29.30
2016,01,29,10,32,26.30
2016,01,29,10,33,25.00
2016,01,29,10,34,25.00
2016,01,29,10,35,25.40
2016,01,29,10,36,25.50
2016,01,29,10,37,25.00
2016,01,29,10,38,25.00
2016,01,29,10,39,25.00
2016,01,29,10,40,25.10
2016,01,29,10,41,26.40
2016,01,29,10,42,29.30
2016,01,29,10,43,32.50
2016,01,29,10,44,34.20
2016,01,29,10,45,36.50
2016,01,29,10,46,38.70
2016,01,29,10,47,42.50
2016,01,29,10,48,46.70
2016,01,29,10,49,48.30
2016,01,29,10,50,47.00
2016,01,29,10,51,47.00
2016,01,29,10,52,47.00
2016,01,29,10,53,47.00
2016,01,29,10,54,49.00
2016,01,29,10,55,49.00
2016,01,29,10,56,49.00
2016,01,29,10,57,49.00
2016,01,29,10,58,47.80
2016,01,29,10,59,46.30
2016,01,29,11,00,42.60
2016,01,29,11,01,39.90
2016,01,29,11,02,38.10
2016,01,29,11,03,33.90
2016,01,29,11,04,31.00
2016,01,29,11,05,33.00
2016,01,29,11,06,35.00
2016,01,29,11,07,39.20
2016,01,29,11,08,43.50
2016,01,29,11,09,39.20
2016,01,29,11,10,40.70
2016,01,29,11,11,43.00
2016,01,29,11,12,44.00
2016,01,29,11,13,44.00
2016,01,29,11,14,44.00
2016,01,29,11,15,39.60
2016,01,29,11,16,42.40
2016,01,29,11,17,37.70
2016,01,29,11,18,40.40
2016,01,29,11,19,47.30
2016,01,29,11,20,57.70
2016,01,29,11,21,52.30
2016,01,29,11,22,60.60
2016,01,29,11,23,61.90
2016,01,29,11,24,49.10
2016,01,29,11,25,42.80
2016,01,29,11,26,39.60
2016,01,29,11,27,48.10
2016,01,29,11,28,57.00
2016,01,29,11,29,46.20
2016,01,29,11,30,40.90
2016,01,29,11,31,47.10
2016,01,29,11,32,50.10
2016,01,29,11,33,41.10
2016,01,29,11,34,39.20
2016,01,29,11,35,53.60
2016,01,29,11,36,56.00
2016,01,29,11,37,56.00
2016,01,29,11,38,57.30
2016,01,29,11,39,60.00
2016,01,29,11,40,60.00
2016,01,29,11,41,61.50
2016,01,29,11,42,70.80
2016,01,29,11,43,88.30
2016,01,29,11,44,78.60
2016,01,29,11,45,67.30
2016,01,29,11,46,64.40
2016,01,29,11,47,75.80
2016,01,29,11,48,81.00
2016,01,29,11,49,77.50
2016,01,29,11,50,70.30
2016,01,29,11,51,70.00
2016,01,29,11,52,72.30
2016,01,29,11,53,81.30
2016,01,29,11,54,87.30
2016,01,29,11,55,94.70
2016,01,29,11,56,97.90
2016,01,29,11,57,88.40
2016,01,29,11,58,88.00
2016,01,29,11,59,91.30
2016,01,29,12,00,94.10
2016,01,29,12,01,84.80
2016,01,29,12,02,71.10
2016,01,29,12,03,73.00
2016,01,29,12,04,82.30
2016,01,29,12,05,72.00
2016,01,29,12,06,71.00
2016,01,29,12,07,84.40
2016,01,29,12,08,74.00
2016,01,29,12,09,58.90
2016,01,29,12,10,59.50
2016,01,29,12,11,70.10
2016,01,29,12,12,77.00
2016,01,29,12,13,79.00
2016,01,29,12,14,83.00
2016,01,29,12,15,77.30
2016,01,29,12,16,72.50
2016,01,29,12,17,56.10
2016,01,29,12,18,62.70
2016,01,29,12,19,65.00
2016,01,29,12,20,73.30
2016,01,29,12,21,80.80
2016,01,29,12,22,78.60
2016,01,29,12,23,72.60
2016,01,29,12,24,72.00
2016,01,29,12,25,74.50
2016,01,29,12,26,80.10
2016,01,29,12,27,75.10
2016,01,29,12,28,74.40
2016,01,29,12,29,78.30
2016,01,29,12,30,87.10
2016,01,29,12,31,98.50
2016,01,29,12,32,96.80
2016,01,29,12,33,94.60
2016,01,29,12,34,107.40
2016,01,29,12,35,120.50
2016,01,29,12,36,120.40
2016,01,29,12,37,106.70
2016,01,29,12,38,85.20
2016,01,29,12,39,85.20
2016,01,29,12,40,76.80
2016,01,29,12,41,71.20
2016,01,29,12,42,59.80
2016,01,29,12,43,64.30
2016,01,29,12,44,67.80
2016,01,29,12,45,85.60
2016,01,29,12,46,68.50
2016,01,29,12,47,75.40
2016,01,29,12,48,68.10
2016,01,29,12,49,73.70
2016,01,29,12,50,89.20
2016,01,29,12,51,81.00
2016,01,29,12,52,70.00
2016,01,29,12,53,68.50
2016,01,29,12,54,62.70
2016,01,29,12,55,60.60
2016,01,29,12,56,53.50
2016,01,29,12,57,56.40
2016,01,29,12,58,63.20
2016,01,29,12,59,65.00
2016,01,29,13,00,64.80
2016,01,29,13,01,62.30
2016,01,29,13,02,66.60
2016,01,29,13,03,91.50
2016,01,29,13,04,107.40
2016,01,29,13,05,109.00
2016,01,29,13,06,99.70
2016,01,29,13,07,107.40
2016,01,29,13,08,138.60
2016,01,29,13,09,152.50
2016,01,29,13,10,178.50
2016,01,29,13,11,202.10
2016,01,29,13,12,199.10
2016,01,29,13,13,178.80
2016,01,29,13,14,157.80
2016,01,29,13,15,159.70
2016,01,29,13,16,168.20
2016,01,29,13,17,141.20
2016,01,29,13,18,111.40
2016,01,29,13,19,82.30
2016,01,29,13,20,57.00
2016,01,29,13,21,54.50
2016,01,29,13,22,61.10
2016,01,29,13,23,64.30
2016,01,29,13,24,65.80
2016,01,29,13,25,72.00
2016,01,29,13,26,83.90
2016,01,29,13,27,94.00
2016,01,29,13,28,83.80
2016,01,29,13,29,79.40
2016,01,29,13,30,69.90
2016,01,29,13,31,55.20
2016,01,29,13,32,42.40
2016,01,29,13,33,41.40
2016,01,29,13,34,45.40
2016,01,29,13,35,49.30
2016,01,29,13,36,56.10
2016,01,29,13,37,64.40
2016,01,29,13,38,62.30
2016,01,29,13,39,69.10
2016,01,29,13,40,67.10
2016,01,29,13,41,66.70
2016,01,29,13,42,59.30
2016,01,29,13,43,50.10
2016,01,29,13,44,44.30
2016,01,29,13,45,37.20
2016,01,29,13,46,38.00
2016,01,29,13,47,46.70
2016,01,29,13,48,53.20
2016,01,29,13,49,63.70
2016,01,29,13,50,72.40
2016,01,29,13,51,72.10
2016,01,29,13,52,72.70
2016,01,29,13,53,71.10
2016,01,29,13,54,68.40
2016,01,29,13,55,84.50
2016,01,29,13,56,93.00
2016,01,29,13,57,96.10
2016,01,29,13,58,105.90
2016,01,29,13,59,123.40
2016,01,29,14,00,135.00
2016,01,29,14,01,141.90
2016,01,29,14,02,147.40
2016,01,29,14,03,148.00
2016,01,29,14,04,148.20
2016,01,29,14,05,149.00
2016,01,29,14,06,148.50
2016,01,29,14,07,142.50
2016,01,29,14,08,134.10
2016,01,29,14,09,122.60
2016,01,29,14,10,118.00
2016,01,29,14,11,119.60
2016,01,29,14,12,128.30
2016,01,29,14,13,141.20
2016,01,29,14,14,161.30
2016,01,29,14,15,176.00
2016,01,29,14,16,180.70
2016,01,29,14,17,203.20
2016,01,29,14,18,263.60
2016,01,29,14,19,281.70
2016,01,29,14,20,258.30
2016,01,29,14,21,209.50
2016,01,29,14,22,186.00
2016,01,29,14,23,185.60
2016,01,29,14,24,184.70
2016,01,29,14,25,178.80
2016,01,29,14,26,166.00
2016,01,29,14,27,155.50
2016,01,29,14,28,152.50
2016,01,29,14,29,148.90
2016,01,29,14,30,142.00
2016,01,29,14,31,125.10
2016,01,29,14,32,118.00
2016,01,29,14,33,118.00
2016,01,29,14,34,117.10
2016,01,29,14,35,117.20
2016,01,29,14,36,124.30
2016,01,29,14,37,137.20
2016,01,29,14,38,155.80
2016,01,29,14,39,158.40
2016,01,29,14,40,153.00
2016,01,29,14,41,149.80
2016,01,29,14,42,143.00
2016,01,29,14,43,136.80
2016,01,29,14,44,138.30
2016,01,29,14,45,140.50
2016,01,29,14,46,135.00
2016,01,29,14,47,139.30
2016,01,29,14,48,154.70
2016,01,29,14,49,166.10
2016,01,29,14,50,174.20
2016,01,29,14,51,182.00
2016,01,29,14,52,200.30
2016,01,29,14,53,218.90
2016,01,29,14,54,227.00
2016,01,29,14,55,208.60
2016,01,29,14,56,184.70
2016,01,29,14,57,178.30
2016,01,29,14,58,178.00
2016,01,29,14,59,179.90
2016,01,29,15,00,170.90
2016,01,29,15,01,174.30
2016,01,29,15,02,189.80
2016,01,29,15,03,179.20
2016,01,29,15,04,166.60
2016,01,29,15,05,174.30
2016,01,29,15,06,177.00
2016,01,29,15,07,200.50
2016,01,29,15,08,246.80
2016,01,29,15,09,260.00
2016,01,29,15,10,238.10
2016,01,29,15,11,185.70
2016,01,29,15,12,160.60
2016,01,29,15,13,154.80
2016,01,29,15,14,149.40
2016,01,29,15,15,143.00
2016,01,29,15,16,147.70
2016,01,29,15,17,152.60
2016,01,29,15,18,136.20
2016,01,29,15,19,125.70
2016,01,29,15,20,123.10
2016,01,29,15,21,123.40
2016,01,29,15,22,125.00
2016,01,29,15,23,125.00
2016,01,29,15,24,126.20
2016,01,29,15,25,129.20
2016,01,29,15,26,133.40
2016,01,29,15,27,132.30
2016,01,29,15,28,135.00
2016,01,29,15,29,134.70
2016,01,29,15,30,133.10
2016,01,29,15,31,129.00
2016,01,29,15,32,122.10
2016,01,29,15,33,114.00
2016,01,29,15,34,104.80
2016,01,29,15,35,96.40
2016,01,29,15,36,89.90
2016,01,29,15,37,87.00
2016,01,29,15,38,84.80
2016,01,29,15,39,85.50
2016,01,29,15,40,86.00
2016,01,29,15,41,80.50
2016,01,29,15,42,70.00
2016,01,29,15,43,62.70
2016,01,29,15,44,62.00
2016,01,29,15,45,65.00
2016,01,29,15,46,69.20
2016,01,29,15,47,73.40
2016,01,29,15,48,73.80
2016,01,29,15,49,73.20
2016,01,29,15,50,80.70
2016,01,29,15,51,89.40
2016,01,29,15,52,82.70
2016,01,29,15,53,74.80
2016,01,29,15,54,69.80
2016,01,29,15,55,69.20
2016,01,29,15,56,72.90
2016,01,29,15,57,77.70
2016,01,29,15,58,83.40
2016,01,29,15,59,84.80
2016,01,29,16,00,83.30
2016,01,29,16,01,83.00
2016,01,29,16,02,81.10
2016,01,29,16,03,81.40
2016,01,29,16,04,81.70
2016,01,29,16,05,75.90
2016,01,29,16,06,67.90
2016,01,29,16,07,62.90
2016,01,29,16,08,62.80
2016,01,29,16,09,62.00
2016,01,29,16,10,60.20
2016,01,29,16,11,53.70
2016,01,29,16,12,53.00
2016,01,29,16,13,51.80
2016,01,29,16,14,51.00
2016,01,29,16,15,51.00
2016,01,29,16,16,51.00
2016,01,29,16,17,50.60
2016,01,29,16,18,49.00
2016,01,29,16,19,49.00
2016,01,29,16,20,51.40
2016,01,29,16,21,53.00
2016,01,29,16,22,53.90
2016,01,29,16,23,55.90
2016,01,29,16,24,56.40
2016,01,29,16,25,57.30
2016,01,29,16,26,56.90
2016,01,29,16,27,59.20
2016,01,29,16,28,61.40
2016,01,29,16,29,62.00
2016,01,29,16,30,57.40
2016,01,29,16,31,49.40
2016,01,29,16,32,42.10
2016,01,29,16,33,36.10
2016,01,29,16,34,31.20
2016,01,29,16,35,28.50
2016,01,29,16,36,26.30
2016,01,29,16,37,25.00
2016,01,29,16,38,24.60
2016,01,29,16,39,23.00
2016,01,29,16,40,23.00
2016,01,29,16,41,23.00
2016,01,29,16,42,23.00
2016,01,29,16,43,21.40
2016,01,29,16,44,21.00
2016,01,29,16,45,20.60
2016,01,29,16,46,19.00
2016,01,29,16,47,19.00
2016,01,29,16,48,19.00
2016,01,29,16,49,18.30
2016,01,29,16,50,18.00
2016,01,29,16,51,17.80
2016,01,29,16,52,16.00
2016,01,29,16,53,16.00
2016,01,29,16,54,15.00
2016,01,29,16,55,14.00
2016,01,29,16,56,12.50
2016,01,29,16,57,12.00
2016,01,29,16,58,11.90
2016,01,29,16,59,11.00
2016,01,29,17,00,10.30
2016,01,29,17,01,9.00
2016,01,29,17,02,7.80
2016,01,29,17,03,7.00
2016,01,29,17,04,7.00
2016,01,29,17,05,5.10
2016,01,29,17,06,5.00
2016,01,29,17,07,5.00
2016,01,29,17,08,2.60
2016,01,29,17,09,0.00
2016,01,29,17,10,0.00
2016,01,29,17,11,0.00
2016,01,29,17,12,0.00
2016,01,29,17,13,0.00
2016,01,29,17,14,0.00
2016,01,29,17,15,0.00
2016,01,29,17,16,0.00
2016,01,29,17,17,0.00
2016,01,29,17,18,0.00
2016,01,29,17,19,0.00
2016,01,29,17,20,0.00
2016,01,29,17,21,0.00
2016,01,29,17,22,0.00
2016,01,29,17,23,0.00
2016,01,29,17,24,0.00
2016,01,29,17,25,0.00
2016,01,29,17,26,0.00
2016,01,29,17,27,0.00
2016,01,29,17,28,0.00
2016,01,29,17,29,0.00
2016,01,29,17,30,0.00
2016,01,29,17,31,0.00
2016,01,29,17,32,0.00
2016,01,29,17,33,0.00
2016,01,29,17,34,0.00
2016,01,29,17,35,0.00
2016,01,29,17,36,0.00
2016,01,29,17,37,0.00
2016,01,29,17,38,0.00
2016,01,29,17,39,0.00